#timestamp,LO_Frequency,Hit,StdDev 
1549141215.5,286047002.3,N
1549141235.4,286047002.5,N
1549141255.2,286046999.8,N
1549141275.1,286047002.8,N
1549141276.0,286047002.8,N
1549141295.8,286047000.5,N
1549141315.6,286046999.8,N
1549141335.5,286047002.8,N
1549141355.3,286046999.8,N
1549141375.2,286047001.1,N
1549141395.9,286047000.3,N
1549141415.7,286047000.7,N
1549141435.6,286047000.9,N
1549141455.4,286047000.9,N
1549141475.3,286047000.2,N
1549141495.1,286047001.0,N
1549141496.0,286047001.0,N
1549141515.8,286047001.1,N
1549141535.7,286047000.7,N
1549141555.5,286047002.2,N
1549141575.3,286047002.8,N
1549141595.2,286047000.2,N
1549141615.0,286047002.7,N
1549141615.9,286047002.7,N
1549141635.8,286047000.7,N
1549141655.6,286047001.2,N
1549141675.5,286047000.9,N
1549141695.3,286046998.3,N
1549141715.1,286046998.1,N
1549141735.9,286047000.8,N
1549141755.7,286047000.0,N
1549141775.5,286046998.8,N
1549141795.4,286047000.5,N
1549141815.2,286047000.2,N
1549141835.1,286047000.9,N
1549141836.0,286047000.9,N
1549141855.8,286047000.1,N
1549141875.6,286047000.0,N
1549141895.5,286046999.8,N
1549141915.3,286047001.9,N
1549141935.1,286047002.6,N
1549141955.9,286047002.3,N
1549141975.7,286047000.3,N
1549141995.6,286047000.8,N
1549142015.4,286047000.3,N
1549142035.2,286046998.3,N
1549142055.1,286046999.3,N
1549142056.0,286046999.3,N
1549142075.8,286046998.1,N
1549142095.7,286046998.2,N
1549142115.5,286046998.2,N
1549142135.3,286047000.8,N
1549142155.2,286046998.3,N
1549142175.0,286047000.7,N
1549142175.9,286047000.7,N
1549142195.7,286047000.1,N
1549142215.6,286047000.3,N
1549142235.4,286047000.7,N
1549142255.3,286047000.2,N
1549142275.1,286047001.2,N
1549142276.0,286047001.2,N
1549142295.8,286047000.0,N
1549142315.7,286047000.4,N
1549142335.5,286047000.6,N
1549142355.3,286047000.1,N
1549142375.2,286047000.1,N
1549142395.0,286047002.8,N
1549142395.9,286047002.8,N
1549142415.8,286047002.6,N
1549142435.6,286047002.8,N
1549142455.4,286047000.0,N
1549142475.3,286046999.9,N
1549142495.1,286046999.9,N
1549142515.9,286046999.8,N
1549142535.7,286046999.7,N
1549142555.5,286047000.8,N
1549142575.4,286047001.2,N
1549142595.2,286047000.7,N
1549142615.0,286047002.5,N
1549142615.9,286047002.5,N
1549142635.8,286047000.0,N
1549142655.6,286046999.9,N
1549142675.5,286047000.2,N
1549142695.3,286047000.5,N
1549142715.1,286046998.8,N
1549142735.9,286046998.3,N
1549142755.7,286046998.8,N
1549142775.6,286047001.1,N
1549142795.4,286047001.2,N
1549142815.2,286046999.2,N
1549142835.1,286046999.1,N
1549142836.0,286046999.1,N
1549142855.8,286046997.0,N
1549142875.6,286046996.8,N
1549142895.5,286046997.9,N
1549142915.3,286046995.5,N
1549142935.2,286046995.8,N
1549142955.9,286046996.0,N
1549142975.7,286046993.4,Y
1549142995.6,286046996.2,P
1549143015.4,286046993.3,P
1549143035.3,286046995.1,N
1549143055.1,286046997.7,N
1549143075.8,286046993.8,N
1549143095.7,286046996.0,N
1549143115.5,286046997.6,N
1549143135.4,286046996.3,N
1549143155.2,286046991.9,Y
1549143175.0,286046995.4,P
1549143175.9,286046995.4,P
1549143195.8,286046995.1,P
1549143215.6,286046997.6,Y
1549143235.5,286047001.3,P
1549143255.3,286047003.7,N
1549143275.1,286047003.5,N
1549143295.9,286047003.7,N
1549143315.7,286047004.2,N
1549143335.5,286047002.5,N
1549143355.4,286047002.1,N
1549143375.2,286047001.5,N
1549143395.1,286047002.5,N
1549143396.0,286047002.5,N
1549143415.8,286047002.1,N
1549143435.6,286047004.3,N
1549143455.5,286047004.7,N
1549143475.3,286047006.5,N
1549143495.1,286047008.6,Y
1549143515.9,286047003.4,P
1549143535.7,286047001.4,P
1549143555.6,286047002.2,N
1549143575.4,286047001.5,N
1549143595.2,286047002.6,Y
1549143615.1,286046999.6,P
1549143616.0,286046999.6,N
1549143635.8,286046997.6,N
1549143655.7,286046998.0,N
1549143675.5,286046995.9,N
1549143695.3,286046995.6,N
1549143715.2,286046997.9,N
1549143735.0,286046997.8,N
1549143735.9,286046997.8,N
1549143755.8,286046997.2,N
1549143775.6,286046993.7,Y
1549143795.4,286046995.0,P
1549143815.3,286046997.9,N
1549143835.1,286046997.2,N
1549143855.8,286046997.6,N
1549143875.7,286046997.1,N
1549143895.5,286046997.1,N
1549143915.4,286046995.3,Y
1549143935.2,286046998.4,P
1549143955.0,286046998.8,N
1549143955.9,286046998.8,N
1549143975.8,286046998.6,N
1549143995.6,286047000.3,N
1549144015.4,286047002.6,N
1549144035.3,286046999.8,N
1549144055.1,286047001.0,N
1549144075.9,286047000.9,N
1549144095.7,286046998.3,N
1549144115.5,286046998.4,N
1549144135.4,286046997.1,N
1549144155.2,286046997.7,N
1549144175.1,286046997.6,N
1549144176.0,286046997.6,N
1549144195.8,286046997.8,N
1549144215.6,286046998.2,N
1549144235.5,286046999.0,N
1549144255.3,286046998.8,N
1549144275.2,286046999.2,N
1549144295.0,286046997.3,N
1549144295.9,286046997.3,N
1549144315.7,286046997.5,N
1549144335.6,286046995.5,Y
1549144355.4,286046996.5,P
1549144375.3,286046999.1,N
1549144395.1,286046998.3,N
1549144415.8,286047000.4,N
1549144435.7,286046998.1,N
1549144455.5,286046999.6,N
1549144475.4,286046996.5,Y
1549144495.2,286046998.1,P
1549144515.0,286046999.6,N
1549144515.9,286046999.6,N
1549144535.8,286046997.3,Y
1549144555.6,286046997.1,P
1549144575.5,286046998.4,N
1549144595.3,286047000.4,N
1549144615.1,286047000.3,N
1549144635.9,286047000.0,N
1549144655.7,286047000.1,N
1549144675.5,286046998.1,N
1549144695.4,286047001.0,N
1549144715.2,286047000.0,N
1549144735.1,286047000.2,N
1549144736.0,286047000.2,N
1549144755.8,286047001.0,N
1549144775.6,286047001.2,N
1549144795.5,286047000.9,N
